| time (UTC) | temp F | wind direction | speed knots | gust knots | rain 1hr in | rain 24hr in | rain mn in | humidity % | barometer mb |
| 20260506050835 | 39 | 204 | 0.0 | 0.0 | 0.00 | 0.00 | 0.00 | 85 | 1014.4 |
| 20260506043833 | 39 | 138 | 0.0 | 0.9 | 0.00 | 0.00 | 0.00 | 85 | 1014.5 |
| 20260506042333 | 39 | 138 | 0.0 | 0.9 | 0.00 | 0.00 | 0.00 | 85 | 1014.5 |
| 20260506040832 | 40 | 138 | 0.0 | 0.0 | 0.00 | 0.00 | 0.00 | 85 | 1014.4 |
| 20260506035332 | 40 | 138 | 0.0 | 0.0 | 0.00 | 0.00 | 0.00 | 84 | 1014.3 |
| 20260506033833 | 40 | 138 | 0.0 | 0.0 | 0.00 | 0.00 | 0.00 | 84 | 1014.4 |
| 20260506032333 | 40 | 138 | 0.0 | 0.0 | 0.00 | 0.00 | 0.00 | 83 | 1014.5 |
| 20260506030833 | 41 | 138 | 0.0 | 0.0 | 0.00 | 0.00 | 0.00 | 83 | 1014.5 |
| 20260506025332 | 41 | 138 | 0.0 | 0.9 | 0.00 | 0.00 | 0.00 | 82 | 1014.6 |
| 20260506023833 | 42 | 138 | 0.0 | 1.7 | 0.00 | 0.00 | 0.00 | 82 | 1014.5 |
| 20260506022332 | 42 | 145 | 0.0 | 3.5 | 0.00 | 0.00 | 0.00 | 81 | 1014.4 |
| 20260506020833 | 43 | 132 | 0.0 | 1.7 | 0.00 | 0.00 | 0.00 | 81 | 1014.6 |
| 20260506015331 | 43 | 132 | 0.0 | 1.7 | 0.00 | 0.00 | 0.00 | 81 | 1014.6 |
| 20260506013830 | 43 | 132 | 0.0 | 2.6 | 0.00 | 0.00 | 0.00 | 81 | 1014.8 |
| 20260506012331 | 43 | 132 | 0.0 | 1.7 | 0.00 | 0.00 | 0.00 | 81 | 1014.7 |
| 20260506010828 | 43 | 133 | 0.0 | 3.5 | 0.00 | 0.00 | 0.00 | 81 | 1014.8 |
| 20260506005326 | 44 | 109 | 0.0 | 3.5 | 0.00 | 0.00 | 0.00 | 81 | 1014.9 |
| 20260506003826 | 44 | 78 | 0.0 | 1.7 | 0.00 | 0.00 | 0.00 | 81 | 1014.9 |
| 20260506002327 | 44 | 317 | 0.0 | 2.6 | 0.00 | 0.00 | 0.00 | 80 | 1014.9 |
| 20260506000826 | 44 | 126 | 0.0 | 3.5 | 0.00 | 0.00 | 0.00 | 80 | 1015.0 |
| 20260505235327 | 44 | 90 | 0.0 | 2.6 | 0.00 | 0.00 | 0.00 | 80 | 1015.2 |
| 20260505233826 | 44 | 133 | 0.0 | 3.5 | 0.00 | 0.00 | 0.00 | 81 | 1015.2 |
| 20260505232326 | 44 | 133 | 0.0 | 1.7 | 0.00 | 0.00 | 0.00 | 80 | 1015.2 |
| 20260505230823 | 45 | 142 | 0.0 | 2.6 | 0.00 | 0.00 | 0.00 | 80 | 1015.3 |
| 20260505225324 | 45 | 145 | 0.0 | 2.6 | 0.00 | 0.00 | 0.00 | 80 | 1015.4 |
| 20260505223821 | 45 | 94 | 0.0 | 1.7 | 0.00 | 0.00 | 0.00 | 79 | 1015.4 |
| 20260505222321 | 45 | 57 | 0.0 | 3.5 | 0.00 | 0.00 | 0.00 | 78 | 1015.3 |
| 20260505220819 | 45 | 170 | 0.0 | 6.1 | 0.00 | 0.00 | 0.00 | 77 | 1015.3 |
| 20260505215319 | 46 | 95 | 0.0 | 3.5 | 0.00 | 0.00 | 0.00 | 77 | 1015.2 |
| 20260505213820 | 46 | 147 | 0.0 | 2.6 | 0.00 | 0.00 | 0.00 | 76 | 1015.3 |
| 20260505212317 | 46 | 146 | 0.0 | 3.5 | 0.00 | 0.00 | 0.00 | 76 | 1015.2 |
| 20260505210815 | 46 | 65 | 0.0 | 3.5 | 0.00 | 0.00 | 0.00 | 76 | 1015.2 |
| 20260505205315 | 46 | 86 | 0.0 | 3.5 | 0.00 | 0.00 | 0.00 | 76 | 1015.0 |
| 20260505203815 | 47 | 15 | 0.0 | 3.5 | 0.00 | 0.00 | 0.00 | 77 | 1014.9 |
| 20260505202314 | 47 | 100 | 0.0 | 2.6 | 0.00 | 0.00 | 0.00 | 78 | 1014.9 |
| 20260505200813 | 47 | 135 | 0.0 | 6.1 | 0.00 | 0.00 | 0.00 | 78 | 1014.9 |
| 20260505195313 | 47 | 148 | 0.0 | 3.5 | 0.00 | 0.00 | 0.00 | 78 | 1014.8 |
| 20260505193811 | 48 | 196 | 0.9 | 9.6 | 0.00 | 0.00 | 0.00 | 77 | 1014.6 |
| 20260505192311 | 48 | 153 | 0.9 | 4.3 | 0.00 | 0.00 | 0.00 | 78 | 1014.4 |
| 20260505190809 | 49 | 146 | 0.0 | 4.3 | 0.00 | 0.00 | 0.00 | 77 | 1014.3 |
| 20260505185308 | 49 | 192 | 0.0 | 4.3 | 0.00 | 0.00 | 0.00 | 76 | 1014.2 |
| 20260505183809 | 49 | 123 | 0.0 | 5.2 | 0.00 | 0.00 | 0.00 | 77 | 1014.1 |
| 20260505182307 | 50 | 119 | 0.9 | 5.2 | 0.00 | 0.00 | 0.00 | 76 | 1013.9 |
| 20260505180807 | 50 | 137 | 0.0 | 2.6 | 0.00 | 0.00 | 0.00 | 76 | 1013.7 |
| 20260505175305 | 51 | 190 | 0.0 | 6.1 | 0.00 | 0.00 | 0.00 | 76 | 1013.7 |
| 20260505173805 | 51 | 117 | 0.0 | 7.0 | 0.00 | 0.00 | 0.00 | 75 | 1013.7 |
| 20260505172306 | 52 | 134 | 0.0 | 3.5 | 0.00 | 0.00 | 0.00 | 75 | 1013.6 |
| 20260505170805 | 52 | 138 | 0.0 | 4.3 | 0.00 | 0.00 | 0.00 | 74 | 1013.6 |
| 20260505165306 | 52 | 38 | 0.0 | 3.5 | 0.00 | 0.00 | 0.00 | 73 | 1013.6 |
| 20260505163805 | 52 | 121 | 0.0 | 5.2 | 0.00 | 0.00 | 0.00 | 73 | 1013.6 |
| 20260505162306 | 53 | 136 | 0.0 | 6.1 | 0.00 | 0.00 | 0.00 | 71 | 1013.5 |
| 20260505160801 | 53 | 151 | 0.0 | 4.3 | 0.00 | 0.00 | 0.00 | 66 | 1013.4 |
| 20260505152256 | 55 | 159 | 0.0 | 4.3 | 0.00 | 0.00 | 0.00 | 62 | 1013.3 |
| 20260505150754 | 55 | 125 | 0.0 | 2.6 | 0.00 | 0.00 | 0.00 | 63 | 1013.2 |
| 20260505123749 | 56 | 279 | 0.0 | 2.6 | 0.00 | 0.01 | 0.00 | 59 | 1013.1 |
| 20260505122247 | 58 | 247 | 0.0 | 2.6 | 0.00 | 0.01 | 0.00 | 56 | 1013.1 |
| 20260505120748 | 58 | 229 | 0.0 | 2.6 | 0.00 | 0.01 | 0.00 | 57 | 1013.1 |
| 20260505115248 | 58 | 237 | 0.0 | 2.6 | 0.00 | 0.01 | 0.00 | 57 | 1013.1 |
| 20260505113748 | 58 | 261 | 0.0 | 3.5 | 0.00 | 0.01 | 0.00 | 56 | 1013.1 |
| 20260505112248 | 57 | 264 | 0.0 | 3.5 | 0.00 | 0.01 | 0.00 | 60 | 1013.3 |
| 20260505110748 | 58 | 218 | 0.9 | 2.6 | 0.00 | 0.01 | 0.00 | 60 | 1013.4 |
| 20260505100743 | 55 | 251 | 0.0 | 2.6 | 0.00 | 0.01 | 0.00 | 65 | 1013.4 |
| 20260505095244 | 54 | 228 | 0.0 | 5.2 | 0.00 | 0.01 | 0.00 | 65 | 1013.5 |
| 20260505093741 | 57 | 225 | 0.9 | 6.1 | 0.00 | 0.01 | 0.00 | 62 | 1013.5 |
| 20260505092241 | 56 | 43 | 0.0 | 3.5 | 0.00 | 0.01 | 0.00 | 63 | 1013.5 |
| 20260505090739 | 54 | 161 | 0.0 | 4.3 | 0.00 | 0.01 | 0.00 | 65 | 1013.6 |
| 20260505085239 | 55 | 161 | 0.0 | 3.5 | 0.00 | 0.01 | 0.00 | 65 | 1013.6 |
| 20260505083740 | 53 | 335 | 0.0 | 5.2 | 0.00 | 0.01 | 0.00 | 66 | 1013.7 |
| 20260505082239 | 55 | 117 | 0.0 | 3.5 | 0.00 | 0.01 | 0.00 | 67 | 1013.8 |
| 20260505080739 | 54 | 280 | 0.0 | 2.6 | 0.00 | 0.01 | 0.00 | 68 | 1013.7 |
| 20260505075239 | 53 | 346 | 0.0 | 6.1 | 0.00 | 0.01 | 0.00 | 70 | 1013.6 |
| 20260505073739 | 53 | 211 | 0.0 | 0.9 | 0.00 | 0.01 | 0.00 | 73 | 1013.5 |
| 20260505072239 | 53 | 214 | 0.0 | 2.6 | 0.00 | 0.01 | 0.00 | 72 | 1013.5 |
| 20260505070739 | 51 | 230 | 0.0 | 1.7 | 0.00 | 0.01 | 0.00 | 76 | 1013.6 |
| 20260505065237 | 50 | 184 | 0.0 | 2.6 | 0.00 | 0.01 | 0.00 | 78 | 1013.6 |
| 20260505063737 | 50 | 170 | 0.0 | 3.5 | 0.00 | 0.01 | 0.00 | 79 | 1013.7 |
| 20260505062236 | 48 | 252 | 0.0 | 2.6 | 0.00 | 0.01 | 0.00 | 81 | 1013.7 |
| 20260505060737 | 47 | 252 | 0.0 | 0.9 | 0.00 | 0.01 | 0.00 | 83 | 1013.7 |
| 20260505055237 | 46 | 252 | 0.0 | 0.9 | 0.00 | 0.01 | 0.00 | 85 | 1013.7 |
| 20260505053737 | 45 | 252 | 0.0 | 3.5 | 0.00 | 0.01 | 0.00 | 86 | 1013.8 |
| 20260505052234 | 45 | 252 | 0.0 | 0.9 | 0.00 | 0.01 | 0.00 | 85 | 1013.9 |